Winter Haven, FL

2:36 AM EDT on May 23, 2017 (GMT -0400)
Winter Haven's-Gilbert

Weather History for KGIF - July, 2014

Change the Weather History Date:

Monday, July 21, 2014

  Actual Average Record
Temperature  
Mean Temperature 84 °F -  
Max Temperature 96 °F 91 °F 97 °F (1999)
Min Temperature 73 °F 71 °F 67 °F (1984)
Cooling Degree Days 19    
Growing Degree Days 34 (Base 50)    
Moisture  
Dew Point 72 °F    
Average Humidity 79    
Maximum Humidity 96    
Minimum Humidity 43    
Precipitation  
Precipitation 2.06 in - - ()
Sea Level Pressure  
Sea Level Pressure 30.06 in    
Wind  
Wind Speed 5 mph (East)    
Max Wind Speed 24 mph    
Max Gust Speed 31 mph    
Visibility 7 miles    
Events Fog , Rain    
Averages and records for this station are not official NWS values.
T = Trace of Precipitation, MM = Missing Value Source: NWS Daily Summary

Daily Weather History Graph

Daily Weather History Graph

Search for Another Location

Airport or City:

Trip Planner

Search our weather history database for the weather conditions in past years. The results will help you decide how hot, cold, wet, or windy it might be!

Date:

Astronomy

Jul. 21, 2014 Rise Set
Actual Time 6:43 AM EDT 8:23 PM EDT
Civil Twilight 6:17 AM EDT 8:48 PM EDT
Nautical Twilight 5:46 AM EDT 9:20 PM EDT
Astronomical Twilight 5:13 AM EDT 9:52 PM EDT
Moon 2:27 AM EDT (7/21) 4:08 PM EDT (7/21)
Length of Visible Light 14h 31m
Length of Day
13h 39m
Waning Crescent, 24% of the Moon is Illuminated
Jul 21
Waning Crescent
Jul 26
New
Aug 3
First Quarter
Aug 10
Full
Aug 17
Last Quarter

Hourly Weather History & Observations

Time (EDT) Temp. Heat Index Dew Point Humidity Pressure Visibility Wind Dir Wind Speed Gust Speed Precip Events Conditions
12:53 AM 79.0 °F - 72.0 °F 79% 30.07 in 10.0 mi ESE 4.6 mph - N/A   Clear
1:53 AM 78.1 °F - 72.0 °F 81% 30.06 in 10.0 mi Calm Calm - N/A   Clear
2:53 AM 78.1 °F - 73.0 °F 84% 30.04 in 10.0 mi ESE 3.5 mph - N/A   Clear
3:53 AM 77.0 °F - 73.0 °F 88% 30.03 in 10.0 mi ESE 3.5 mph - N/A   Clear
4:53 AM 77.0 °F - 73.0 °F 88% 30.02 in 10.0 mi Calm Calm - N/A   Clear
5:53 AM 77.0 °F - 73.0 °F 88% 30.03 in 10.0 mi Calm Calm - N/A   Clear
6:53 AM 77.0 °F - 73.9 °F 90% 30.05 in 10.0 mi ESE 3.5 mph - N/A   Clear
7:53 AM 79.0 °F - 75.9 °F 90% 30.07 in 10.0 mi Calm Calm - N/A   Clear
8:53 AM 82.0 °F 88.6 °F 75.0 °F 79% 30.09 in 10.0 mi South 4.6 mph - N/A   Clear
9:53 AM 84.9 °F 91.4 °F 73.0 °F 67% 30.09 in 10.0 mi SW 4.6 mph - N/A   Clear
10:53 AM 86.0 °F 92.2 °F 72.0 °F 63% 30.09 in 10.0 mi Calm Calm - N/A   Clear
11:53 AM 89.1 °F 91.3 °F 66.0 °F 46% 30.08 in 10.0 mi SSE 4.6 mph - N/A   Clear
12:53 PM 89.1 °F 94.1 °F 70.0 °F 53% 30.06 in 10.0 mi Variable 3.5 mph - N/A   Scattered Clouds
1:53 PM 91.9 °F 98.4 °F 71.1 °F 50% 30.04 in 10.0 mi SW 5.8 mph - N/A   Clear
2:53 PM 93.0 °F 97.9 °F 69.1 °F 45% 30.02 in 10.0 mi Calm Calm - N/A   Clear
3:53 PM 93.0 °F 100.1 °F 71.1 °F 49% 30.01 in 10.0 mi NW 4.6 mph - N/A   Clear
4:53 PM 95.0 °F 100.7 °F 69.1 °F 43% 30.00 in 10.0 mi Variable 5.8 mph - N/A   Mostly Cloudy
5:48 PM 82.4 °F 87.2 °F 71.6 °F 70% 30.01 in 4.0 mi NW 10.4 mph 21.9 mph 0.02 in Rain Rain
5:53 PM 81.0 °F 85.8 °F 73.0 °F 77% 30.01 in 3.0 mi Variable 5.8 mph - 0.05 in Rain Rain
5:55 PM 81.0 °F 85.8 °F 73.0 °F 77% 30.02 in 1.5 mi ENE 8.1 mph - 0.11 in Rain Rain
6:04 PM 77.0 °F - 72.0 °F 84% 30.04 in 0.5 mi ESE 24.2 mph 27.6 mph 0.31 in Rain Heavy Rain
6:12 PM 75.9 °F - 72.0 °F 87% 30.04 in 0.5 mi East 23.0 mph 31.1 mph 0.57 in Fog , Rain Heavy Rain
6:40 PM 73.0 °F - 71.1 °F 93% 30.08 in 1.2 mi WSW 4.6 mph - 1.15 in Rain Heavy Rain
6:53 PM 73.9 °F - 71.1 °F 91% 30.06 in 0.8 mi ESE 6.9 mph - 1.45 in Rain Heavy Rain
7:10 PM 73.0 °F - 71.1 °F 93% 30.07 in 1.2 mi ENE 9.2 mph - 0.26 in Rain Heavy Rain
7:22 PM 73.9 °F - 72.0 °F 93% 30.09 in 2.0 mi NNE 6.9 mph - 0.33 in Rain Rain
7:29 PM 73.9 °F - 72.0 °F 93% 30.10 in 3.0 mi East 8.1 mph - 0.34 in Rain Rain
7:45 PM 73.0 °F - 72.0 °F 96% 30.11 in 8.0 mi East 3.5 mph - 0.35 in Rain Light Rain
7:53 PM 73.0 °F - 71.1 °F 93% 30.11 in 6.0 mi ESE 5.8 mph - 0.36 in Rain Rain
8:53 PM 73.0 °F - 71.1 °F 93% 30.09 in 6.0 mi ENE 6.9 mph - 0.12 in Rain Rain
9:53 PM 73.9 °F - 72.0 °F 93% 30.07 in 8.0 mi East 5.8 mph - 0.06 in Rain Light Rain
10:53 PM 73.9 °F - 71.1 °F 91% 30.07 in 10.0 mi East 5.8 mph - 0.02 in   Clear
11:53 PM 73.9 °F - 71.1 °F 91% 30.08 in 10.0 mi East 4.6 mph - N/A   Clear